Meath Environmental Platform

Observations for Trim Market St

Time AQI Temp °C Hum % Pres Pa CO μg/m³ H₂S μg/m³ NO μg/m³ NO₂ μg/m³ O₃ μg/m³ SO₂ μg/m³ PM1 μg/m³ PM2.5 μg/m³ PM10 μg/m³
Tuesday 25 August 2026
19:13 3 18.8 68 55,032 0.06 0 1.01 31.19 60.62 0 4.99 7.07 10.09
19:12 3 18.8 68 55,093 0.07 0 1.02 80.01 11.05 0 7.13 8.05 12.01
19:11 3 18.9 68 55,168 0.03 0 0.93 21.39 69.36 0 7.13 9.52 13.29
19:08 3 18.9 67 55,345 0.04 0 1.05 24.94 61.51 0 6.41 7.58 12.03
19:07 3 19 67 55,409 0.04 0 1 24.09 59.69 0 4.99 7.1 10.74
19:06 3 19 67 55,483 0.04 0 0.96 31.42 61.59 0 7.13 10.54 14.61
19:05 3 19.1 67 55,574 0.03 0 0.94 21.98 66.49 0 7.84 9.57 13.98
19:04 3 19.1 67 55,655 0.03 0 0.93 19.86 62.67 0 6.41 10.07 15.92
18:58 3 19.3 66 56,079 0.08 0 1.08 34.86 58.26 0 4.99 6.67 14.02
18:55 3 19.4 66 56,333 0.01 0 1.06 19.98 68.47 0 5.7 7.69 12.1
18:53 3 19.5 65 56,489 0 0 1.32 25.21 61.66 0 5.7 7.7 11.45
18:47 3 19.6 64 56,936 0 0 1.26 22 66.38 0 4.99 7.28 10.17
18:44 3 19.7 64 57,029 0 0 1.12 21.58 70.22 0 4.99 7.8 11.51
18:43 3 19.8 64 57,065 0 0 1.11 17.51 60.23 0 4.28 6.82 10.85
18:42 3 19.9 64 57,095 0 0 1.12 21.06 67.26 0 6.41 9.79 13.51
18:41 3 19.9 63 57,125 0 0 1.01 15.16 62.4 0 6.41 7.82 10.86
18:40 3 20 63 57,160 0 0 0.97 16.2 61.55 0 7.84 9.81 15.53
18:39 3 20 63 57,201 0 0 1.06 17.98 74.06 0 5.7 8.34 11.54
18:38 3 20.1 63 57,243 0 0 1.07 26.29 86.74 0 5.7 6.86 10.2
18:37 3 20.1 63 57,289 0 0 1.08 19.57 61.19 0 4.99 7.36 10.88